• In Hungary
  • List of Countries
  • For 7 days
  • Water Temperature
  • Satellite Maps
  • Weather Map
  • News
  • Weather Widgets
  • user-avatar
    Login

    Hourly Weather Ust-Kyahta

    Today, 25 June, Monday

    Time Temperature Precipitation Wind Pressure Humidity
    00:00 +18°C° 0 mm 1 mps 703 mmHg 68%
    01:00 +17°C° 0 mm 2 mps 703 mmHg 68%
    02:00 +16°C° 0 mm 2 mps 703 mmHg 69%
    03:00 +16°C° 0 mm 2 mps 703 mmHg 70%
    04:00 +16°C° 0 mm 2 mps 704 mmHg 71%
    05:00 +18°C° 0 mm 3 mps 704 mmHg 66%
    06:00 +19°C° 0 mm 3 mps 704 mmHg 62%
    07:00 +21°C° 0 mm 4 mps 704 mmHg 57%
    08:00 +22°C° 0.3 mm 5 mps 704 mmHg 53%
    09:00 +23°C° 0.3 mm 5 mps 704 mmHg 50%
    10:00 +24°C° 0.3 mm 6 mps 704 mmHg 46%
    11:00 +26°C° 0.1 mm 6 mps 704 mmHg 44%
    12:00 +26°C° 0.1 mm 6 mps 704 mmHg 42%
    13:00 +27°C° 0.1 mm 6 mps 704 mmHg 40%
    14:00 +27°C° 0 mm 6 mps 704 mmHg 40%
    15:00 +27°C° 0 mm 6 mps 704 mmHg 40%
    16:00 +27°C° 0 mm 6 mps 704 mmHg 40%
    17:00 +26°C° 0 mm 5 mps 704 mmHg 44%
    18:00 +25°C° 0 mm 5 mps 704 mmHg 49%
    19:00 +23°C° 0 mm 4 mps 704 mmHg 53%
    20:00 +21°C° 0.1 mm 3 mps 704 mmHg 59%
    21:00 +19°C° 0.1 mm 3 mps 705 mmHg 64%
    22:00 +18°C° 0.1 mm 3 mps 705 mmHg 69%
    23:00 +17°C° 0 mm 2 mps 705 mmHg 72%

    Tomorrow, 26 June, Tuesday

    Time Temperature Precipitation Wind Pressure Humidity
    00:00 +17°C° 0 mm 2 mps 705 mmHg 74%
    01:00 +16°C° 0 mm 2 mps 705 mmHg 76%
    02:00 +16°C° 0 mm 2 mps 705 mmHg 76%
    03:00 +16°C° 0 mm 2 mps 705 mmHg 77%
    04:00 +16°C° 0 mm 2 mps 705 mmHg 77%
    05:00 +17°C° 0.1 mm 2 mps 706 mmHg 74%
    06:00 +18°C° 0.1 mm 2 mps 706 mmHg 71%
    07:00 +19°C° 0.1 mm 2 mps 706 mmHg 69%
    08:00 +20°C° 0.2 mm 3 mps 706 mmHg 64%
    09:00 +22°C° 0.2 mm 3 mps 707 mmHg 60%
    10:00 +24°C° 0.2 mm 3 mps 707 mmHg 56%
    11:00 +25°C° 0.4 mm 4 mps 707 mmHg 53%
    12:00 +26°C° 0.4 mm 4 mps 707 mmHg 50%
    13:00 +27°C° 0.4 mm 4 mps 707 mmHg 47%
    14:00 +27°C° 0.1 mm 4 mps 707 mmHg 46%
    15:00 +27°C° 0.1 mm 4 mps 707 mmHg 46%
    16:00 +27°C° 0.1 mm 4 mps 707 mmHg 46%
    17:00 +26°C° 0 mm 3 mps 707 mmHg 49%
    18:00 +26°C° 0 mm 2 mps 707 mmHg 52%
    19:00 +25°C° 0 mm 2 mps 707 mmHg 55%
    20:00 +23°C° 0 mm 2 mps 708 mmHg 60%
    21:00 +21°C° 0 mm 1 mps 708 mmHg 64%
    22:00 +19°C° 0 mm 1 mps 708 mmHg 69%
    23:00 +19°C° 0 mm 1 mps 708 mmHg 72%

    Day after tomorrow, 27 June, Wednesday

    Time Temperature Precipitation Wind Pressure Humidity
    00:00 +18°C° 0 mm 1 mps 708 mmHg 74%
    01:00 +18°C° 0 mm 1 mps 708 mmHg 77%
    02:00 +16°C° 0 mm 1 mps 708 mmHg 78%
    03:00 +16°C° 0 mm 1 mps 708 mmHg 79%
    04:00 +15°C° 0 mm 1 mps 708 mmHg 80%
    05:00 +19°C° 0 mm 1 mps 709 mmHg 72%
    06:00 +21°C° 0 mm 1 mps 709 mmHg 64%
    07:00 +23°C° 0 mm 1 mps 709 mmHg 56%
    08:00 +25°C° 0 mm 1 mps 709 mmHg 51%
    09:00 +27°C° 0 mm 1 mps 709 mmHg 45%
    10:00 +29°C° 0 mm 1 mps 709 mmHg 40%
    11:00 +30°C° 0 mm 1 mps 709 mmHg 37%
    12:00 +31°C° 0 mm 1 mps 709 mmHg 33%
    13:00 +32°C° 0 mm 1 mps 708 mmHg 30%
    14:00 +32°C° 0 mm 1 mps 708 mmHg 29%
    15:00 +32°C° 0 mm 1 mps 708 mmHg 28%
    16:00 +33°C° 0 mm 1 mps 707 mmHg 27%
    17:00 +32°C° 0 mm 1 mps 707 mmHg 32%
    18:00 +30°C° 0 mm 1 mps 707 mmHg 36%
    19:00 +29°C° 0 mm 1 mps 707 mmHg 41%
    20:00 +27°C° 0 mm 1 mps 707 mmHg 44%
    21:00 +25°C° 0 mm 1 mps 707 mmHg 48%
    22:00 +23°C° 0 mm 1 mps 707 mmHg 51%
    23:00 +22°C° 0 mm 1 mps 707 mmHg 54%

    28 June, Thursday

    Time Temperature Precipitation Wind Pressure Humidity
    00:00 +21°C° 0 mm 1 mps 706 mmHg 57%
    01:00 +20°C° 0 mm 1 mps 706 mmHg 59%
    02:00 +20°C° 0 mm 1 mps 706 mmHg 61%
    03:00 +19°C° 0 mm 1 mps 706 mmHg 64%
    04:00 +19°C° 0 mm 1 mps 706 mmHg 66%
    05:00 +21°C° 0 mm 1 mps 706 mmHg 61%
    06:00 +23°C° 0 mm 1 mps 706 mmHg 56%
    07:00 +25°C° 0 mm 1 mps 706 mmHg 51%
    08:00 +27°C° 0 mm 1 mps 706 mmHg 46%
    09:00 +29°C° 0 mm 2 mps 706 mmHg 42%
    10:00 +31°C° 0 mm 2 mps 705 mmHg 37%
    11:00 +32°C° 0 mm 2 mps 705 mmHg 33%
    12:00 +33°C° 0 mm 1 mps 704 mmHg 28%
    13:00 +35°C° 0 mm 1 mps 704 mmHg 24%
    14:00 +35°C° 0 mm 1 mps 704 mmHg 22%
    15:00 +35°C° 0 mm 1 mps 704 mmHg 21%
    16:00 +36°C° 0 mm 1 mps 703 mmHg 19%
    17:00 +34°C° 0 mm 1 mps 703 mmHg 24%
    18:00 +32°C° 0 mm 1 mps 703 mmHg 29%
    19:00 +31°C° 0 mm 1 mps 702 mmHg 33%
    20:00 +29°C° 0 mm 1 mps 702 mmHg 35%
    21:00 +26°C° 0 mm 1 mps 702 mmHg 37%
    22:00 +24°C° 0 mm 1 mps 702 mmHg 39%
    23:00 +23°C° 0.1 mm 1 mps 702 mmHg 42%

    29 June, Friday

    Time Temperature Precipitation Wind Pressure Humidity
    00:00 +23°C° 0.1 mm 1 mps 702 mmHg 45%
    01:00 +22°C° 0.1 mm 1 mps 703 mmHg 49%
    02:00 +22°C° 0 mm 1 mps 702 mmHg 50%
    03:00 +22°C° 0 mm 1 mps 702 mmHg 51%
    04:00 +21°C° 0 mm 1 mps 702 mmHg 53%
    05:00 +23°C° 0 mm 1 mps 702 mmHg 51%
    06:00 +24°C° 0 mm 1 mps 702 mmHg 49%
    07:00 +26°C° 0 mm 1 mps 702 mmHg 47%
    08:00 +27°C° 0 mm 1 mps 702 mmHg 43%
    09:00 +29°C° 0 mm 1 mps 702 mmHg 39%
    10:00 +31°C° 0 mm 1 mps 702 mmHg 34%
    11:00 +32°C° 0 mm 1 mps 702 mmHg 33%
    12:00 +32°C° 0 mm 1 mps 702 mmHg 31%
    13:00 +33°C° 0 mm 1 mps 701 mmHg 29%
    14:00 +34°C° 0 mm 2 mps 701 mmHg 30%
    15:00 +34°C° 0 mm 2 mps 701 mmHg 30%
    16:00 +34°C° 0 mm 2 mps 701 mmHg 31%
    17:00 +32°C° 0 mm 2 mps 701 mmHg 34%
    18:00 +31°C° 0 mm 2 mps 701 mmHg 38%
    19:00 +30°C° 0 mm 2 mps 700 mmHg 41%
    20:00 +28°C° 0 mm 2 mps 700 mmHg 45%
    21:00 +26°C° 0 mm 2 mps 700 mmHg 48%
    22:00 +24°C° 0 mm 2 mps 700 mmHg 52%
    23:00 +23°C° 0 mm 2 mps 700 mmHg 54%

    30 June, Saturday

    Time Temperature Precipitation Wind Pressure Humidity
    00:00 +23°C° 0 mm 2 mps 700 mmHg 57%
    01:00 +21°C° 0 mm 2 mps 700 mmHg 59%
    02:00 +20°C° 0 mm 2 mps 700 mmHg 61%
    03:00 +20°C° 0 mm 2 mps 699 mmHg 63%
    04:00 +19°C° 0 mm 2 mps 699 mmHg 66%
    05:00 +21°C° 0 mm 2 mps 699 mmHg 61%
    06:00 +23°C° 0 mm 2 mps 699 mmHg 56%
    07:00 +25°C° 0 mm 2 mps 700 mmHg 51%
    08:00 +27°C° 0 mm 3 mps 700 mmHg 46%
    09:00 +29°C° 0 mm 3 mps 700 mmHg 40%
    10:00 +30°C° 0 mm 3 mps 700 mmHg 35%
    11:00 +31°C° 0 mm 3 mps 699 mmHg 32%
    12:00 +33°C° 0 mm 3 mps 699 mmHg 30%
    13:00 +34°C° 0 mm 3 mps 699 mmHg 28%
    14:00 +34°C° 0 mm 3 mps 698 mmHg 27%
    15:00 +34°C° 0 mm 3 mps 698 mmHg 27%
    16:00 +34°C° 0 mm 3 mps 698 mmHg 26%
    17:00 +33°C° 0 mm 3 mps 698 mmHg 30%
    18:00 +31°C° 0 mm 3 mps 698 mmHg 34%
    19:00 +29°C° 0 mm 3 mps 697 mmHg 38%
    20:00 +27°C° 0 mm 3 mps 697 mmHg 40%
    21:00 +26°C° 0 mm 3 mps 697 mmHg 42%
    22:00 +24°C° 0 mm 3 mps 697 mmHg 43%
    23:00 +22°C° 0 mm 3 mps 697 mmHg 45%
    Show more